Location: Bosdarros
(43.2167°N, 0.3667°W)
Time: 14:36:21
(UTC+00:00)

Cosmos 1825 - Pass Details

Date: 22 April 2021
Orbit: 502 x 505 km, 82.5° (Epoch: 12 May)

Event Time Altitude Azimuth Distance (km) Brightness Sun altitude
Rises 20:24:37 0° 339° (NNW) 2,616 6.7 -15.8°
Reaches altitude 10° 20:26:59 10° 327° (NNW) 1,726 6.0 -16.1°
Maximum altitude 20:30:08 26° 270° (W) 1,039 4.3 -16.6°
Drops below altitude 10° 20:33:16 10° 213° (SSW) 1,714 4.8 -17.1°
Enters shadow 20:35:25 - 201° (SSW) 2,515 5.5 -17.4°
